This is the latest recevied weather packets stored in our database for station/object VE2JJ-13. If no packets are shown the sender has not sent any weather packets the latest 1 day(s).
| Time | Temp. | Humidity | Pressure | Rain* | Wind** | Luminosity | Snow |
|---|---|---|---|---|---|---|---|
| 1778024401 | 18.33° C | 54% | 996.1 hPa | 0 mm | 12.96 m/s, 233° | - | - |
| 1778024099 | 18.33° C | 54% | 996.1 hPa | 0 mm | 8.05 m/s, 217° | - | - |
| 1778023500 | 18.89° C | 54% | 995.9 hPa | 0 mm | 11.18 m/s, 193° | - | - |
| 1778022568 | 18.89° C | 55% | 995.9 hPa | 0 mm | 14.31 m/s, 197° | - | - |
| 1778022267 | 18.89° C | 58% | 995.8 hPa | 0 mm | 7.15 m/s, 243° | - | - |
| 1778021937 | 18.89° C | 58% | 995.7 hPa | 0 mm | 5.81 m/s, 166° | - | - |
| 1778021639 | 19.44° C | 58% | 995.7 hPa | 0 mm | 13.86 m/s, 270° | - | - |
| 1778021339 | 19.44° C | 58% | 995.4 hPa | 0 mm | 12.52 m/s, 263° | - | - |
| 1778021007 | 19.44° C | 58% | 995.4 hPa | 0 mm | 10.28 m/s, 217° | - | - |
| 1778020711 | 19.44° C | 57% | 995 hPa | 0 mm | 6.26 m/s, 231° | - | - |
| 1778020077 | 20° C | 57% | 995 hPa | 0 mm | 6.71 m/s, 219° | - | - |
| 1778019748 | 20° C | 57% | 995 hPa | 0 mm | 13.86 m/s, 252° | - | - |
| 1778019449 | 20° C | 57% | 995 hPa | 0 mm | 8.05 m/s, 233° | - | - |
| 1778019148 | 20° C | 57% | 994.7 hPa | 0 mm | 4.02 m/s, 238° | - | - |
| 1778018222 | 20° C | 58% | 994.4 hPa | 0 mm | 5.36 m/s, 212° | - | - |
| 1778017919 | 20.56° C | 58% | 994.4 hPa | 0 mm | 5.81 m/s, 270° | - | - |
| 1778017619 | 20.56° C | 58% | 994.4 hPa | 0 mm | 6.26 m/s, 245° | - | - |
| 1778017290 | 20.56° C | 58% | 994.4 hPa | 0 mm | 12.96 m/s, 203° | - | - |
| 1778016987 | 20.56° C | 58% | 994 hPa | 0 mm | 11.62 m/s, 276° | - | - |
| 1778016688 | 20.56° C | 58% | 994 hPa | 0 mm | 12.52 m/s, 292° | - | - |
| 1778016390 | 20.56° C | 58% | 994 hPa | 0 mm | 7.15 m/s, 228° | - | - |
| 1778016089 | 20.56° C | 58% | 994 hPa | 0 mm | 7.6 m/s, 227° | - | - |
| 1778015789 | 21.11° C | 58% | 993.6 hPa | 0 mm | 8.94 m/s, 250° | - | - |
| 1778015489 | 21.67° C | 56% | 993.4 hPa | 0 mm | 12.96 m/s, 257° | - | - |
| 1778015190 | 21.67° C | 56% | 993.4 hPa | 0 mm | 8.05 m/s, 201° | - | - |
* Rain latest hour (hover to see other rain measurements)
** Current wind speed in m/s (hover to see current wind gust speed)